sat.trackr.live / text

‹ back to catalog

STARLINK-4771

NORAD 53833 · 2022-114R

PAYLOAD ACTIVE UNKNOWN

§ Identity

Operator
Country
US
Launch date
2022-09-19
Launch site
AFETR
Launch vehicle
Mass (kg)
RCS (m²)

Purposes: comms

External: N2YO · Heavens-Above · Gunter

§ Orbital elements

Epoch: 2026-09-20T22:00:03.000096Z

Period
95.29 min
Inclination
53.1609°
Eccentricity
0.0001977
Mean motion
15.11124750 rev/d
Perigee alt
531.4 km
Apogee alt
534.1 km
Semi-major
6,910.9 km
B*
5.0629e-4
RAAN
146.9060°
Arg perigee
45.1413°
Mean anomaly
42.1956°
Rev number
575

§ Raw data

STARLINK-47711 53833U 22114R   26263.91670139  .00008297  00000+0  50629-3 0  99972 53833  53.1609 146.9060 0001977  45.1413  42.1956 15.11124750  5757

JSON: /api/v1/satellites/53833 · /tle

For live sub-satellite position, see the globe view (requires WebGL).

§ Visibility from observer

Set your observer location to see the next 7 days of passes ≥ 10°. The values pass through the URL so the page stays shareable.

No JS? Fill the form by hand. The geolocation button needs JavaScript.